FW1583 Weather Reports


time (UTC)temp
C
wind
direction
speed
KPH
gust
KPH
rain 1hr
cm
rain 24hr
cm
rain mn
cm
humidity
%
barometer
mb
20260504150829 20 292 0.0 1.6 0.00 0.00 0.00 39 1016.7
20260504140928 15 157 0.0 0.0 0.00 0.00 0.00 46 1017.0
20260504100229 9 202 0.0 0.0 0.00 0.00 0.00 62 1017.7
20260504081427 9 157 0.0 0.0 0.00 0.00 0.00 67 1018.0
20260504080428 9 157 0.0 0.0 0.00 0.00 0.00 66 1018.1
20260504050727 8 157 0.0 0.0 0.00 0.00 0.00 65 1018.4
20260504045729 8 157 0.0 0.0 0.00 0.00 0.00 65 1018.3
20260504044728 7 157 0.0 0.0 0.00 0.00 0.00 66 1018.2
20260504043729 7 157 0.0 0.0 0.00 0.00 0.00 66 1018.2
20260504041830 7 157 0.0 0.0 0.00 0.00 0.00 64 1018.2
20260504040829 7 157 0.0 0.0 0.00 0.00 0.00 63 1018.2
20260504040728 7 157 0.0 0.0 0.00 0.00 0.00 63 1018.1
20260504034740 8 157 0.0 0.0 0.00 0.00 0.00 61 1018.3
20260504033839 8 157 0.0 0.0 0.00 0.00 0.00 60 1018.4
20260504033739 8 157 0.0 0.0 0.00 0.00 0.00 59 1018.3
20260504032741 8 157 0.0 0.0 0.00 0.00 0.00 57 1018.2
20260504032641 8 157 0.0 0.0 0.00 0.00 0.00 58 1018.2
20260504031640 7 157 0.0 0.0 0.00 0.00 0.00 57 1018.1
20260504030738 7 157 0.0 0.0 0.00 0.00 0.00 57 1018.1
20260504025739 7 157 0.0 0.0 0.00 0.00 0.00 56 1018.0
20260504024838 8 157 0.0 0.0 0.00 0.00 0.00 57 1017.9
20260504023839 8 157 0.0 0.0 0.00 0.00 0.00 58 1018.0
20260504022840 8 157 0.0 0.0 0.00 0.00 0.00 56 1018.0
20260504021938 8 157 0.0 0.0 0.00 0.00 0.00 55 1017.9
20260504020942 8 157 0.0 0.0 0.00 0.00 0.00 54 1017.7
20260504015040 8 157 0.0 0.0 0.00 0.00 0.00 53 1017.5
20260504014138 8 157 0.0 0.0 0.00 0.00 0.00 53 1017.5
20260504013141 9 157 0.0 0.0 0.00 0.00 0.00 52 1017.6
20260504012142 9 157 0.0 0.0 0.00 0.00 0.00 52 1017.5
20260504012040 9 157 0.0 0.0 0.00 0.00 0.00 52 1017.5
20260504011040 10 157 0.0 0.0 0.00 0.00 0.00 51 1017.6
20260504010040 10 157 0.0 0.0 0.00 0.00 0.00 50 1017.5
20260504004238 11 157 0.0 0.0 0.00 0.00 0.00 49 1017.4
20260504002356 12 157 0.0 0.0 0.00 0.00 0.00 45 1017.2
20260504001355 12 157 0.0 0.0 0.00 0.00 0.00 44 1017.2
20260504000440 13 157 0.0 0.0 0.00 0.00 0.00 39 1017.2
20260503235440 13 157 0.0 0.0 0.00 0.00 0.00 35 1017.1
20260503234457 14 157 0.0 0.0 0.00 0.00 0.00 34 1017.1
20260503232457 15 247 0.0 0.0 0.00 0.00 0.00 31 1016.8
20260503232338 15 247 0.0 1.6 0.00 0.00 0.00 31 1016.8
20260503232255 15 251 0.0 3.2 0.00 0.00 0.00 31 1016.9
20260503231241 15 158 0.0 1.6 0.00 0.00 0.00 30 1016.8
20260503230339 16 247 1.6 4.8 0.00 0.00 0.00 32 1016.8
20260503225340 16 242 1.6 4.8 0.00 0.00 0.00 30 1016.8
20260503224341 17 67 0.0 0.0 0.00 0.00 0.00 29 1016.8
20260503223438 17 207 1.6 4.8 0.00 0.00 0.00 30 1016.9
20260503215440 18 241 0.0 3.2 0.00 0.00 0.00 28 1016.8
20260503213440 18 315 1.6 3.2 0.00 0.00 0.00 32 1016.9
20260503212438 18 292 0.0 0.0 0.00 0.00 0.00 31 1016.9
20260503211439 17 246 3.2 9.7 0.00 0.00 0.00 29 1016.9
20260503210440 17 260 1.6 6.4 0.00 0.00 0.00 30 1016.8
20260503205537 18 218 1.6 8.0 0.00 0.00 0.00 30 1017.0
20260503204540 17 263 1.6 4.8 0.00 0.00 0.00 32 1017.2
20260503203538 17 245 3.2 8.0 0.00 0.00 0.00 31 1017.0
20260503202637 18 208 3.2 11.3 0.00 0.00 0.00 31 1017.1
20260503201640 18 292 1.6 4.8 0.00 0.00 0.00 34 1017.2
20260503200738 17 328 0.0 3.2 0.00 0.00 0.00 31 1017.4
20260503194739 17 241 3.2 9.7 0.00 0.00 0.00 32 1017.5
20260503193739 17 293 0.0 3.2 0.00 0.00 0.00 33 1017.8
20260503191739 16 306 1.6 6.4 0.00 0.00 0.00 32 1018.1
20260503190740 16 319 0.0 3.2 0.00 0.00 0.00 32 1018.3
20260503185739 16 295 1.6 6.4 0.00 0.00 0.00 34 1018.4
20260503184740 16 282 0.0 6.4 0.00 0.00 0.00 34 1018.6
20260503183740 15 360 0.0 4.8 0.00 0.00 0.00 33 1018.7
20260503180839 15 330 0.0 8.0 0.00 0.00 0.00 34 1018.7
20260503174839 15 303 1.6 4.8 0.00 0.00 0.00 34 1018.9
20260503173841 15 17 0.0 3.2 0.00 0.00 0.00 35 1019.1
20260503172840 15 52 0.0 3.2 0.00 0.00 0.00 35 1019.3
20260503171939 15 179 3.2 8.0 0.00 0.00 0.00 35 1019.3
20260503160139 13 326 0.0 1.6 0.00 0.00 0.00 36 1019.8